• Em Portugal
  • Lista de países
  • Para 7 dias
  • Temperatura da água
  • Mapas de satélite
  • Mapa do tempo
  • Widgets de tempo
  • user-avatar
    Iniciar Sessão

    Previsão horária em São Luis

    Hoje, 17 Dezembro, Domingo

    Tempo Temperatura Precipitação Vento Pressão Humidade
    00:00 +28°C° 0 mm 11 m/s 693 mmHg 21%
    01:00 +26°C° 0 mm 13 m/s 694 mmHg 23%
    02:00 +22°C° 0 mm 15 m/s 696 mmHg 25%
    03:00 +19°C° 0 mm 14 m/s 697 mmHg 25%
    04:00 +17°C° 0 mm 13 m/s 698 mmHg 25%
    05:00 +14°C° 0 mm 12 m/s 700 mmHg 25%
    06:00 +14°C° 0 mm 11 m/s 701 mmHg 24%
    07:00 +14°C° 0 mm 11 m/s 702 mmHg 22%
    08:00 +16°C° 0 mm 10 m/s 703 mmHg 21%
    09:00 +17°C° 0 mm 9 m/s 704 mmHg 19%
    10:00 +18°C° 0 mm 8 m/s 704 mmHg 18%
    11:00 +21°C° 0 mm 7 m/s 705 mmHg 17%
    12:00 +22°C° 0 mm 7 m/s 704 mmHg 16%
    13:00 +23°C° 0 mm 6 m/s 704 mmHg 16%
    14:00 +24°C° 0 mm 6 m/s 703 mmHg 15%
    15:00 +26°C° 0 mm 6 m/s 703 mmHg 16%
    16:00 +26°C° 0 mm 6 m/s 702 mmHg 16%
    17:00 +26°C° 0 mm 6 m/s 702 mmHg 16%
    18:00 +25°C° 0 mm 5 m/s 702 mmHg 18%
    19:00 +23°C° 0 mm 5 m/s 701 mmHg 21%
    20:00 +21°C° 0 mm 5 m/s 701 mmHg 23%
    21:00 +21°C° 0 mm 5 m/s 702 mmHg 25%
    22:00 +20°C° 0 mm 5 m/s 702 mmHg 27%
    23:00 +19°C° 0 mm 5 m/s 702 mmHg 29%

    Amanhã, 18 Dezembro, Segunda-feira

    Tempo Temperatura Precipitação Vento Pressão Humidade
    00:00 +19°C° 0 mm 5 m/s 701 mmHg 29%
    01:00 +19°C° 0 mm 4 m/s 701 mmHg 30%
    02:00 +19°C° 0 mm 4 m/s 700 mmHg 30%
    03:00 +19°C° 0 mm 5 m/s 700 mmHg 30%
    04:00 +19°C° 0 mm 5 m/s 700 mmHg 31%
    05:00 +19°C° 0 mm 6 m/s 699 mmHg 31%
    06:00 +21°C° 0 mm 7 m/s 700 mmHg 29%
    07:00 +23°C° 0 mm 8 m/s 700 mmHg 27%
    08:00 +26°C° 0 mm 8 m/s 700 mmHg 25%
    09:00 +28°C° 0 mm 8 m/s 700 mmHg 23%
    10:00 +29°C° 0 mm 9 m/s 700 mmHg 22%
    11:00 +32°C° 0 mm 9 m/s 700 mmHg 20%
    12:00 +33°C° 0 mm 9 m/s 699 mmHg 20%
    13:00 +34°C° 0 mm 9 m/s 698 mmHg 19%
    14:00 +35°C° 0 mm 9 m/s 698 mmHg 19%
    15:00 +35°C° 0 mm 9 m/s 697 mmHg 20%
    16:00 +34°C° 0 mm 9 m/s 697 mmHg 21%
    17:00 +34°C° 0 mm 9 m/s 696 mmHg 21%
    18:00 +32°C° 0 mm 8 m/s 697 mmHg 25%
    19:00 +29°C° 0 mm 7 m/s 697 mmHg 28%
    20:00 +28°C° 0 mm 6 m/s 697 mmHg 31%
    21:00 +27°C° 0 mm 6 m/s 698 mmHg 32%
    22:00 +26°C° 0 mm 7 m/s 698 mmHg 33%
    23:00 +26°C° 0 mm 7 m/s 698 mmHg 33%

    Depois de amanhã, 19 Dezembro, Terça-feira

    Tempo Temperatura Precipitação Vento Pressão Humidade
    00:00 +26°C° 0 mm 7 m/s 698 mmHg 33%
    01:00 +24°C° 0 mm 7 m/s 697 mmHg 32%
    02:00 +24°C° 0 mm 7 m/s 697 mmHg 32%
    03:00 +24°C° 0 mm 7 m/s 697 mmHg 33%
    04:00 +23°C° 0 mm 6 m/s 697 mmHg 34%
    05:00 +23°C° 0 mm 6 m/s 697 mmHg 35%
    06:00 +24°C° 0 mm 7 m/s 698 mmHg 35%
    07:00 +27°C° 0 mm 7 m/s 698 mmHg 35%
    08:00 +28°C° 0 mm 8 m/s 699 mmHg 35%
    09:00 +30°C° 0 mm 7 m/s 699 mmHg 33%
    10:00 +32°C° 0 mm 6 m/s 699 mmHg 32%
    11:00 +33°C° 0 mm 5 m/s 699 mmHg 31%
    12:00 +34°C° 0,1 mm 4 m/s 699 mmHg 31%
    13:00 +34°C° 0,1 mm 4 m/s 698 mmHg 32%
    14:00 +34°C° 0,1 mm 3 m/s 697 mmHg 33%
    15:00 +34°C° 0,1 mm 4 m/s 697 mmHg 33%
    16:00 +34°C° 0,1 mm 4 m/s 696 mmHg 33%
    17:00 +35°C° 0,1 mm 4 m/s 696 mmHg 33%
    18:00 +33°C° 0 mm 4 m/s 696 mmHg 38%
    19:00 +30°C° 0 mm 5 m/s 696 mmHg 43%
    20:00 +29°C° 0 mm 5 m/s 696 mmHg 48%
    21:00 +28°C° 0,1 mm 6 m/s 696 mmHg 52%
    22:00 +27°C° 0,1 mm 7 m/s 697 mmHg 55%
    23:00 +26°C° 0,1 mm 7 m/s 697 mmHg 59%

    20 Dezembro, Quarta-feira

    Tempo Temperatura Precipitação Vento Pressão Humidade
    00:00 +24°C° 0 mm 7 m/s 696 mmHg 61%
    01:00 +24°C° 0 mm 7 m/s 696 mmHg 62%
    02:00 +23°C° 0 mm 7 m/s 696 mmHg 64%
    03:00 +23°C° 0 mm 6 m/s 696 mmHg 65%
    04:00 +22°C° 0 mm 6 m/s 695 mmHg 66%
    05:00 +22°C° 0 mm 6 m/s 695 mmHg 67%
    06:00 +24°C° 0 mm 6 m/s 696 mmHg 61%
    07:00 +27°C° 0 mm 6 m/s 696 mmHg 56%
    08:00 +28°C° 0 mm 6 m/s 697 mmHg 50%
    09:00 +30°C° 0 mm 5 m/s 696 mmHg 44%
    10:00 +33°C° 0 mm 5 m/s 696 mmHg 38%
    11:00 +35°C° 0 mm 4 m/s 696 mmHg 32%
    12:00 +36°C° 0 mm 4 m/s 696 mmHg 29%
    13:00 +37°C° 0 mm 3 m/s 695 mmHg 26%
    14:00 +38°C° 0 mm 3 m/s 694 mmHg 23%
    15:00 +38°C° 0 mm 3 m/s 694 mmHg 22%
    16:00 +38°C° 0 mm 3 m/s 693 mmHg 22%
    17:00 +38°C° 0 mm 3 m/s 693 mmHg 21%
    18:00 +37°C° 0 mm 3 m/s 693 mmHg 24%
    19:00 +35°C° 0 mm 4 m/s 693 mmHg 28%
    20:00 +33°C° 0 mm 5 m/s 693 mmHg 31%
    21:00 +32°C° 0,1 mm 5 m/s 693 mmHg 35%
    22:00 +30°C° 0,1 mm 5 m/s 693 mmHg 39%
    23:00 +29°C° 0,1 mm 5 m/s 694 mmHg 42%

    21 Dezembro, Quinta-feira

    Tempo Temperatura Precipitação Vento Pressão Humidade
    00:00 +29°C° 0,1 mm 6 m/s 693 mmHg 46%
    01:00 +28°C° 0,1 mm 8 m/s 693 mmHg 49%
    02:00 +28°C° 0,1 mm 9 m/s 693 mmHg 53%
    03:00 +27°C° 0,1 mm 8 m/s 693 mmHg 56%
    04:00 +26°C° 0,1 mm 7 m/s 693 mmHg 60%
    05:00 +26°C° 0,1 mm 5 m/s 694 mmHg 63%
    06:00 +26°C° 0,9 mm 5 m/s 694 mmHg 65%
    07:00 +26°C° 0,9 mm 5 m/s 695 mmHg 67%
    08:00 +26°C° 0,9 mm 4 m/s 696 mmHg 69%
    09:00 +27°C° 0,7 mm 4 m/s 696 mmHg 62%
    10:00 +29°C° 0,7 mm 3 m/s 696 mmHg 55%
    11:00 +31°C° 0,7 mm 2 m/s 696 mmHg 48%
    12:00 +32°C° 0,4 mm 2 m/s 696 mmHg 45%
    13:00 +32°C° 0,4 mm 2 m/s 695 mmHg 41%
    14:00 +34°C° 0,4 mm 3 m/s 695 mmHg 38%
    15:00 +34°C° 0 mm 3 m/s 694 mmHg 38%
    16:00 +34°C° 0 mm 3 m/s 694 mmHg 38%
    17:00 +35°C° 0 mm 3 m/s 693 mmHg 38%
    18:00 +34°C° 0 mm 3 m/s 693 mmHg 39%
    19:00 +33°C° 0 mm 3 m/s 693 mmHg 41%
    20:00 +31°C° 0 mm 3 m/s 693 mmHg 43%
    21:00 +30°C° 0 mm 3 m/s 693 mmHg 45%
    22:00 +29°C° 0 mm 3 m/s 693 mmHg 48%
    23:00 +28°C° 0 mm 3 m/s 693 mmHg 51%

    22 Dezembro, Sexta-feira

    Tempo Temperatura Precipitação Vento Pressão Humidade
    00:00 +27°C° 0,6 mm 3 m/s 693 mmHg 53%
    01:00 +26°C° 0,6 mm 4 m/s 692 mmHg 56%
    02:00 +25°C° 0,6 mm 4 m/s 692 mmHg 59%
    03:00 +25°C° 0,5 mm 4 m/s 692 mmHg 61%
    04:00 +25°C° 0,5 mm 3 m/s 692 mmHg 62%
    05:00 +25°C° 0,5 mm 3 m/s 692 mmHg 64%
    06:00 +26°C° 0,7 mm 4 m/s 693 mmHg 61%
    07:00 +27°C° 0,7 mm 5 m/s 694 mmHg 57%
    08:00 +29°C° 0,7 mm 6 m/s 695 mmHg 54%
    09:00 +29°C° 1,2 mm 6 m/s 695 mmHg 52%
    10:00 +30°C° 1,2 mm 5 m/s 695 mmHg 51%
    11:00 +30°C° 1,2 mm 5 m/s 695 mmHg 49%
    12:00 +32°C° 1,9 mm 6 m/s 695 mmHg 48%
    13:00 +32°C° 1,9 mm 6 m/s 695 mmHg 47%
    14:00 +32°C° 1,9 mm 7 m/s 694 mmHg 46%
    15:00 +32°C° 0,9 mm 7 m/s 694 mmHg 46%
    16:00 +32°C° 0,9 mm 8 m/s 694 mmHg 46%
    17:00 +31°C° 0,9 mm 8 m/s 694 mmHg 46%
    18:00 +29°C° 0,1 mm 8 m/s 694 mmHg 48%
    19:00 +27°C° 0,1 mm 8 m/s 695 mmHg 50%
    20:00 +26°C° 0,1 mm 8 m/s 695 mmHg 52%
    21:00 +24°C° 0 mm 8 m/s 696 mmHg 54%
    22:00 +24°C° 0 mm 7 m/s 696 mmHg 55%
    23:00 +23°C° 0 mm 7 m/s 696 mmHg 57%
    Mostrar mais